Satellite-Ground Cal/Val Site Overpasses Predictions

Prediction of Satellite NPP Overpassing Cal/Val Site: Antarctic Dome C

Ground Cal/Val Site Location: Latitude: -75.10, Longitude: 123.35; Satellite-Ground Site NADIR distance within 100 km.

Table of predicted overpasses for the next 14.0 days since TLE Epoch: 9/30/2023
Interval Starting Time Ending Time Minimum Distance Time Minimum Distance (km)
1 09/30/2023 07:19:45 09/30/2023 07:20:04 09/30/2023 07:19:54 72.74
2 10/02/2023 15:01:56 10/02/2023 15:02:20 10/02/2023 15:02:08 55.54
3 10/03/2023 14:43:05 10/03/2023 14:43:30 10/03/2023 14:43:18 53.70
4 10/04/2023 07:44:45 10/04/2023 07:45:05 10/04/2023 07:44:55 72.32
5 10/05/2023 07:25:51 10/05/2023 07:26:18 10/05/2023 07:26:04 35.80
6 10/07/2023 15:08:12 10/07/2023 15:08:23 10/07/2023 15:08:18 92.81
7 10/08/2023 14:49:11 10/08/2023 14:49:40 10/08/2023 14:49:26 18.66
8 10/10/2023 07:31:59 10/10/2023 07:32:28 10/10/2023 07:32:13 1.69
